Weather History for KDLS - April, 2013

Change the Weather History Date:

Monday, April 1, 2013

  Actual Average Record
Temperature  
Mean Temperature 62 °F -  
Max Temperature 69 °F 61 °F 79 °F (1992)
Min Temperature 55 °F 39 °F 27 °F (2008)
Degree Days  
Heating Degree Days 4    
Growing Degree Days 12 (Base 50)    
Moisture  
Dew Point 47 °F    
Average Humidity 61    
Maximum Humidity 74    
Minimum Humidity 47    
Precipitation  
Precipitation 0.00 in - - ()
Sea Level Pressure  
Sea Level Pressure 30.00 in    
Wind  
Wind Speed 14 mph (NW)    
Max Wind Speed 23 mph    
Max Gust Speed 33 mph    
Visibility 10 miles    
Events      
Averages and records for this station are not official NWS values.
T = Trace of Precipitation, MM = Missing Value Source: NWS Daily Summary

Daily Weather History Graph

Daily Weather History Graph

Search for Another Location

Airport or City:

Trip Planner

Search our weather history database for the weather conditions in past years. The results will help you decide how hot, cold, wet, or windy it might be!

Date:

Astronomy

Apr. 01, 2013 Rise Set
Actual Time 6:44 AM PDT 7:33 PM PDT
Civil Twilight 6:14 AM PDT 8:03 PM PDT
Nautical Twilight 5:38 AM PDT 8:39 PM PDT
Astronomical Twilight 5:01 AM PDT 9:16 PM PDT
Moon 12:59 AM PDT (4/1) 10:23 AM PDT (4/1)
Length of Visible Light 13h 49m
Length of Day
12h 49m
Waning Gibbous, 66% of the Moon is Illuminated
Apr 1
Waning Gibbous
Apr 2
Last Quarter
Apr 10
New
Apr 18
First Quarter
Apr 25
Full

Hourly Weather History & Observations

Time (PDT) Temp. Dew Point Humidity Pressure Visibility Wind Dir Wind Speed Gust Speed Precip Events Conditions
12:53 AM 57.0 °F 45.0 °F 64% 29.94 in 10.0 mi NW 10.4 mph - N/A   Clear
1:53 AM 57.0 °F 46.0 °F 67% 29.94 in 10.0 mi West 8.1 mph - N/A   Clear
2:53 AM 55.9 °F 46.9 °F 72% 29.94 in 10.0 mi WNW 10.4 mph - N/A   Clear
3:53 AM 55.0 °F 46.9 °F 74% 29.94 in 10.0 mi WNW 8.1 mph - N/A   Clear
4:53 AM 55.9 °F 46.9 °F 72% 29.95 in 10.0 mi NW 12.7 mph - N/A   Clear
5:53 AM 55.0 °F 46.9 °F 74% 29.96 in 10.0 mi NNW 15.0 mph - N/A   Clear
6:53 AM 55.0 °F 46.9 °F 74% 29.97 in 10.0 mi NW 11.5 mph 20.7 mph N/A   Clear
7:53 AM 57.0 °F 46.9 °F 69% 29.98 in 10.0 mi NW 13.8 mph - N/A   Clear
8:53 AM 59.0 °F 48.0 °F 67% 29.99 in 10.0 mi NW 17.3 mph - N/A   Clear
9:53 AM 62.1 °F 48.9 °F 62% 30.00 in 10.0 mi NW 18.4 mph 24.2 mph N/A   Clear
10:53 AM 63.0 °F 48.9 °F 60% 30.01 in 10.0 mi NNW 21.9 mph 27.6 mph N/A   Clear
11:53 AM 64.0 °F 48.9 °F 58% 30.01 in 10.0 mi NW 23.0 mph 32.2 mph N/A   Clear
12:53 PM 64.9 °F 48.0 °F 54% 30.01 in 10.0 mi NNW 21.9 mph 31.1 mph N/A   Clear
1:53 PM 68.0 °F 48.0 °F 49% 30.00 in 10.0 mi NW 21.9 mph 29.9 mph N/A   Clear
2:53 PM 68.0 °F 46.9 °F 47% 30.00 in 10.0 mi WNW 18.4 mph 32.2 mph N/A   Clear
3:53 PM 66.9 °F 46.0 °F 47% 30.01 in 10.0 mi NW 21.9 mph 27.6 mph N/A   Clear
4:53 PM 66.0 °F 46.0 °F 48% 30.02 in 10.0 mi WNW 16.1 mph 26.5 mph N/A   Clear
5:53 PM 64.9 °F 45.0 °F 48% 30.02 in 10.0 mi West 23.0 mph 31.1 mph N/A   Clear
6:53 PM 63.0 °F 44.1 °F 50% 30.03 in 10.0 mi West 20.7 mph 33.4 mph N/A   Clear
7:53 PM 61.0 °F 44.1 °F 54% 30.04 in 10.0 mi West 12.7 mph 21.9 mph N/A   Clear
8:53 PM 60.1 °F 45.0 °F 57% 30.06 in 10.0 mi West 16.1 mph 26.5 mph N/A   Clear
9:53 PM 59.0 °F 46.0 °F 62% 30.07 in 10.0 mi WNW 13.8 mph 21.9 mph N/A   Clear
10:53 PM 57.9 °F 46.9 °F 67% 30.07 in 10.0 mi WNW 13.8 mph - N/A   Clear
11:53 PM 59.0 °F 46.9 °F 64% 30.08 in 10.0 mi WNW 21.9 mph 25.3 mph N/A   Clear